Location: 22
(39.7117°N, 89.5929°W)
Time: 04:30:19
(UTC-06:00)

Tiros 1 - Visible Passes

Search period start: 28 January 2023 00:00
Search period end: 07 February 2023 00:00
Orbit: 628 x 662 km, 48.4° (Epoch: 28 January)

Date Brightness Start Highest point End Pass type
(mag) Time Alt. Az. Time Alt. Az. Time Alt. Az.
28 Jan 10.2 03:48:34 11° NE 03:48:34 11° NE 03:48:46 10° NE visible
28 Jan 8.4 05:26:11 25° NNW 05:27:14 28° N 05:31:18 10° ENE visible
29 Jan 9.6 04:12:50 17° NE 04:12:50 17° NE 04:14:14 10° NE visible
29 Jan 8.4 05:50:27 18° NW 05:53:06 30° N 05:57:17 10° ENE visible
30 Jan 8.9 04:37:06 25° NNE 04:37:06 25° NNE 04:39:56 10° ENE visible
30 Jan 8.1 06:14:43 12° NW 06:18:52 40° NNE 06:23:21 10° E visible
31 Jan 8.4 05:01:22 29° N 05:01:44 30° N 05:05:53 10° ENE visible
01 Feb 10.1 03:48:02 12° NE 03:48:02 12° NE 03:48:33 10° ENE visible
01 Feb 8.1 05:25:40 27° NNW 05:27:31 38° NNE 05:31:56 10° E visible
02 Feb 9.3 04:12:21 21° NE 04:12:21 21° NE 04:14:28 10° ENE visible
02 Feb 7.5 05:49:58 20° NW 05:53:09 60° NNE 05:57:51 10° ESE visible
03 Feb 8.4 04:36:42 35° NNE 04:36:42 35° NNE 04:40:32 10° E visible
03 Feb 7.2 06:14:20 12° WNW 06:18:36 73° SW 06:23:20 10° SE visible
04 Feb 7.5 05:01:07 50° N 05:01:49 56° NNE 05:06:27 10° ESE visible
05 Feb 9.9 03:47:57 16° ENE 03:47:57 16° ENE 03:49:06 10° E visible
05 Feb 7.0 05:25:35 40° WNW 05:27:16 80° SW 05:32:00 10° SE visible
06 Feb 8.9 04:12:30 30° E 04:12:30 30° E 04:15:03 10° ESE visible
06 Feb 7.8 05:50:08 22° W 05:52:32 38° SW 05:56:53 10° SSE visible
